When you browse on this site, cookies collect data to enhance your experience and personalize the content and advertising you see.
Visit our Privacy Policy to learn more. By continuing to use the site, you agree to this use of cookies and data.
  • In Hungary
  • List of Countries
  • For 7 days
  • Water Temperature
  • Weather Map
  • News
  • Weather Widgets
  • user-avatar
    Login

    Hourly Weather Gryfino

    Today, 13 November, Wednesday

    Time Temperature Precipitation Wind Pressure Humidity
    00:00 +4°C° 0 mm 2 mps 752 mmHg 88%
    01:00 +4°C° 0 mm 2 mps 752 mmHg 89%
    02:00 +4°C° 0 mm 2 mps 752 mmHg 89%
    03:00 +4°C° 0 mm 2 mps 751 mmHg 89%
    04:00 +4°C° 0 mm 2 mps 751 mmHg 89%
    05:00 +4°C° 0 mm 2 mps 751 mmHg 90%
    06:00 +4°C° 0 mm 2 mps 751 mmHg 91%
    07:00 +4°C° 0 mm 2 mps 750 mmHg 91%
    08:00 +4°C° 0 mm 2 mps 750 mmHg 89%
    09:00 +5°C° 0 mm 2 mps 750 mmHg 86%
    10:00 +6°C° 0 mm 2 mps 750 mmHg 83%
    11:00 +6°C° 0 mm 2 mps 750 mmHg 81%
    12:00 +6°C° 0 mm 2 mps 750 mmHg 78%
    13:00 +8°C° 0 mm 1 mps 750 mmHg 76%
    14:00 +7°C° 0 mm 1 mps 750 mmHg 78%
    15:00 +7°C° 0 mm 1 mps 750 mmHg 79%
    16:00 +6°C° 0 mm 2 mps 750 mmHg 81%
    17:00 +5°C° 0 mm 2 mps 750 mmHg 82%
    18:00 +5°C° 0 mm 2 mps 750 mmHg 83%
    19:00 +5°C° 0 mm 2 mps 750 mmHg 85%
    20:00 +4°C° 0 mm 2 mps 750 mmHg 85%
    21:00 +4°C° 0 mm 2 mps 750 mmHg 85%
    22:00 +4°C° 0 mm 2 mps 751 mmHg 86%
    23:00 +4°C° 0 mm 2 mps 751 mmHg 85%

    Tomorrow, 14 November, Thursday

    Time Temperature Precipitation Wind Pressure Humidity
    00:00 +4°C° 0 mm 2 mps 751 mmHg 85%
    01:00 +4°C° 0 mm 2 mps 751 mmHg 84%
    02:00 +4°C° 0 mm 2 mps 751 mmHg 84%
    03:00 +4°C° 0 mm 2 mps 751 mmHg 85%
    04:00 +4°C° 0 mm 2 mps 751 mmHg 85%
    05:00 +4°C° 0 mm 2 mps 752 mmHg 86%
    06:00 +4°C° 0 mm 2 mps 752 mmHg 86%
    07:00 +4°C° 0 mm 2 mps 753 mmHg 87%
    08:00 +5°C° 0 mm 2 mps 753 mmHg 86%
    09:00 +5°C° 0 mm 2 mps 754 mmHg 84%
    10:00 +6°C° 0 mm 2 mps 754 mmHg 83%
    11:00 +6°C° 0 mm 2 mps 755 mmHg 79%
    12:00 +7°C° 0 mm 2 mps 755 mmHg 75%
    13:00 +8°C° 0 mm 2 mps 756 mmHg 72%
    14:00 +7°C° 0 mm 2 mps 756 mmHg 75%
    15:00 +6°C° 0 mm 2 mps 756 mmHg 78%
    16:00 +5°C° 0 mm 2 mps 756 mmHg 80%
    17:00 +5°C° 0 mm 2 mps 756 mmHg 83%
    18:00 +3°C° 0 mm 3 mps 757 mmHg 85%
    19:00 +2°C° 0 mm 3 mps 757 mmHg 88%
    20:00 +2°C° 0 mm 3 mps 757 mmHg 88%
    21:00 +2°C° 0 mm 3 mps 757 mmHg 88%
    22:00 +2°C° 0 mm 3 mps 757 mmHg 89%
    23:00 +1°C° 0 mm 4 mps 757 mmHg 89%

    Day after tomorrow, 15 November, Friday

    Time Temperature Precipitation Wind Pressure Humidity
    00:00 +1°C° 0 mm 4 mps 757 mmHg 88%
    01:00 +1°C° 0 mm 5 mps 757 mmHg 88%
    02:00 +1°C° 0 mm 5 mps 756 mmHg 87%
    03:00 +2°C° 0 mm 6 mps 756 mmHg 85%
    04:00 +3°C° 0 mm 6 mps 755 mmHg 83%
    05:00 +3°C° 0 mm 6 mps 755 mmHg 84%
    06:00 +4°C° 0 mm 6 mps 755 mmHg 85%
    07:00 +4°C° 0 mm 6 mps 754 mmHg 86%
    08:00 +7°C° 0 mm 6 mps 753 mmHg 87%
    09:00 +8°C° 0 mm 7 mps 753 mmHg 83%
    10:00 +9°C° 0 mm 7 mps 753 mmHg 80%
    11:00 +11°C° 0 mm 7 mps 752 mmHg 74%
    12:00 +12°C° 0 mm 7 mps 752 mmHg 69%
    13:00 +14°C° 0 mm 7 mps 752 mmHg 63%
    14:00 +14°C° 0 mm 6 mps 752 mmHg 65%
    15:00 +13°C° 0 mm 6 mps 752 mmHg 67%
    16:00 +13°C° 0 mm 6 mps 751 mmHg 69%
    17:00 +13°C° 0 mm 6 mps 752 mmHg 70%
    18:00 +11°C° 0 mm 6 mps 752 mmHg 71%
    19:00 +11°C° 0 mm 6 mps 752 mmHg 73%
    20:00 +11°C° 0 mm 6 mps 752 mmHg 75%
    21:00 +12°C° 0 mm 5 mps 752 mmHg 76%
    22:00 +10°C° 0 mm 5 mps 753 mmHg 78%
    23:00 +10°C° 0 mm 5 mps 753 mmHg 80%

    16 November, Saturday

    Time Temperature Precipitation Wind Pressure Humidity
    00:00 +10°C° 0 mm 4 mps 753 mmHg 83%
    01:00 +10°C° 0 mm 4 mps 753 mmHg 85%
    02:00 +10°C° 0 mm 3 mps 753 mmHg 85%
    03:00 +10°C° 0 mm 3 mps 752 mmHg 84%
    04:00 +11°C° 0 mm 3 mps 752 mmHg 84%
    05:00 +11°C° 0 mm 4 mps 752 mmHg 83%
    06:00 +10°C° 0 mm 5 mps 752 mmHg 83%
    07:00 +10°C° 0 mm 5 mps 753 mmHg 82%
    08:00 +9°C° 0 mm 5 mps 754 mmHg 82%
    09:00 +8°C° 0 mm 5 mps 755 mmHg 81%
    10:00 +7°C° 0 mm 5 mps 756 mmHg 80%
    11:00 +7°C° 0 mm 5 mps 756 mmHg 78%
    12:00 +7°C° 0 mm 5 mps 757 mmHg 75%
    13:00 +6°C° 0 mm 5 mps 758 mmHg 73%
    14:00 +6°C° 0 mm 4 mps 758 mmHg 75%
    15:00 +6°C° 0 mm 4 mps 759 mmHg 77%
    16:00 +5°C° 0 mm 3 mps 759 mmHg 80%
    17:00 +5°C° 0 mm 3 mps 760 mmHg 82%
    18:00 +5°C° 0 mm 2 mps 760 mmHg 84%
    19:00 +4°C° 0 mm 2 mps 760 mmHg 86%
    20:00 +4°C° 0 mm 2 mps 761 mmHg 87%
    21:00 +4°C° 0 mm 2 mps 761 mmHg 88%
    22:00 +4°C° 0 mm 2 mps 761 mmHg 89%
    23:00 +4°C° 0 mm 2 mps 761 mmHg 88%

    17 November, Sunday

    Time Temperature Precipitation Wind Pressure Humidity
    00:00 +4°C° 0 mm 2 mps 761 mmHg 87%
    01:00 +4°C° 0 mm 2 mps 761 mmHg 87%
    02:00 +4°C° 0 mm 2 mps 761 mmHg 87%
    03:00 +5°C° 0 mm 2 mps 760 mmHg 87%
    04:00 +5°C° 0 mm 2 mps 760 mmHg 88%
    05:00 +4°C° 2 mm 3 mps 760 mmHg 90%
    06:00 +5°C° 2 mm 4 mps 759 mmHg 93%
    07:00 +5°C° 2 mm 4 mps 759 mmHg 96%
    08:00 +6°C° 0.9 mm 5 mps 758 mmHg 94%
    09:00 +7°C° 0.9 mm 5 mps 758 mmHg 92%
    10:00 +8°C° 0.9 mm 5 mps 757 mmHg 90%
    11:00 +9°C° 0 mm 5 mps 756 mmHg 88%
    12:00 +11°C° 0 mm 4 mps 756 mmHg 85%
    13:00 +12°C° 0 mm 4 mps 755 mmHg 82%
    14:00 +11°C° 0 mm 4 mps 755 mmHg 85%
    15:00 +10°C° 0 mm 4 mps 755 mmHg 87%
    16:00 +10°C° 0 mm 4 mps 755 mmHg 89%
    17:00 +10°C° 0 mm 4 mps 755 mmHg 90%
    18:00 +8°C° 0 mm 4 mps 755 mmHg 90%
    19:00 +8°C° 0 mm 4 mps 755 mmHg 90%
    20:00 +8°C° 0 mm 4 mps 755 mmHg 90%
    21:00 +8°C° 0 mm 4 mps 755 mmHg 91%
    22:00 +9°C° 0 mm 3 mps 755 mmHg 91%
    23:00 +8°C° 0 mm 3 mps 755 mmHg 92%

    18 November, Monday

    Time Temperature Precipitation Wind Pressure Humidity
    00:00 +8°C° 0 mm 3 mps 755 mmHg 92%
    01:00 +8°C° 0 mm 3 mps 754 mmHg 93%
    02:00 +8°C° 0 mm 3 mps 754 mmHg 93%
    03:00 +8°C° 0 mm 3 mps 754 mmHg 93%
    04:00 +6°C° 0 mm 4 mps 754 mmHg 92%
    05:00 +6°C° 0 mm 4 mps 753 mmHg 92%
    06:00 +7°C° 0 mm 3 mps 753 mmHg 92%
    07:00 +7°C° 0 mm 3 mps 753 mmHg 91%
    08:00 +7°C° 0 mm 4 mps 753 mmHg 87%
    09:00 +8°C° 0 mm 4 mps 754 mmHg 83%
    10:00 +9°C° 0 mm 5 mps 754 mmHg 79%
    11:00 +11°C° 0 mm 4 mps 754 mmHg 77%
    12:00 +12°C° 0 mm 4 mps 754 mmHg 74%
    13:00 +12°C° 0 mm 4 mps 754 mmHg 72%
    14:00 +12°C° 0 mm 4 mps 754 mmHg 75%
    15:00 +11°C° 0 mm 3 mps 754 mmHg 78%
    16:00 +10°C° 0 mm 3 mps 754 mmHg 81%
    17:00 +10°C° 0 mm 3 mps 754 mmHg 82%
    18:00 +10°C° 0 mm 3 mps 755 mmHg 84%
    19:00 +9°C° 0 mm 3 mps 755 mmHg 86%
    20:00 +9°C° 0 mm 3 mps 755 mmHg 88%
    21:00 +9°C° 0 mm 3 mps 756 mmHg 89%
    22:00 +9°C° 0 mm 3 mps 757 mmHg 91%
    23:00 +8°C° 0 mm 3 mps 757 mmHg 92%
    Show more